Time,TemperatureF,DewpointF,PressureIn,WindDirection,WindDirectionDegrees,WindSpeedMPH,WindSpeedGustMPH,Humidity,HourlyPrecipIn,Conditions,Clouds,dailyrainin,SolarRadiationWatts/m^2,SoftwareType,DateUTC
2013-08-01 00:08:00,72.8,40.0,30.10,NNE,30,8.0,13.0,31,0.00,,,0.00,0,weatherlink.com 1.10,2013-08-01 06:08:00,
2013-08-01 00:23:00,73.0,40.0,30.09,North,5,6.0,9.0,30,0.00,,,0.00,0,weatherlink.com 1.10,2013-08-01 06:23:00,
2013-08-01 00:39:00,73.4,39.0,30.09,North,355,7.0,11.0,29,0.00,,,0.00,0,weatherlink.com 1.10,2013-08-01 06:39:00,
2013-08-01 00:54:00,73.4,39.0,30.10,North,5,3.0,7.0,29,0.00,,,0.00,0,weatherlink.com 1.10,2013-08-01 06:54:00,
2013-08-01 01:09:00,74.7,39.0,30.10,North,360,7.0,8.0,28,0.00,,,0.00,0,weatherlink.com 1.10,2013-08-01 07:09:00,
2013-08-01 01:24:00,70.8,40.0,30.12,NE,36,13.0,17.0,33,0.00,,,0.00,0,weatherlink.com 1.10,2013-08-01 07:24:00,
2013-08-01 01:39:00,71.3,41.0,30.12,NE,36,18.0,21.0,34,0.00,,,0.00,0,weatherlink.com 1.10,2013-08-01 07:39:00,
2013-08-01 02:24:00,70.0,42.0,30.12,North,360,16.0,19.0,36,0.00,,,0.00,0,weatherlink.com 1.10,2013-08-01 08:24:00,
2013-08-01 02:54:00,71.5,44.0,30.12,NNE,29,21.0,28.0,37,0.00,,,0.00,0,weatherlink.com 1.10,2013-08-01 08:54:00,
2013-08-01 03:09:00,71.0,43.0,30.12,NNE,22,20.0,27.0,37,0.00,,,0.00,0,weatherlink.com 1.10,2013-08-01 09:09:00,
2013-08-01 03:24:00,70.0,43.0,30.12,NNE,24,23.0,27.0,38,0.00,,,0.00,0,weatherlink.com 1.10,2013-08-01 09:24:00,
2013-08-01 03:54:00,68.8,44.0,30.11,North,360,17.0,24.0,41,0.00,,,0.00,0,weatherlink.com 1.10,2013-08-01 09:54:00,
2013-08-01 04:09:00,68.1,44.0,30.11,North,355,12.0,17.0,42,0.00,,,0.00,0,weatherlink.com 1.10,2013-08-01 10:09:00,
2013-08-01 04:24:00,67.5,44.0,30.10,North,5,10.0,14.0,43,0.00,,,0.00,0,weatherlink.com 1.10,2013-08-01 10:24:00,
2013-08-01 04:39:00,66.5,44.0,30.10,North,5,9.0,13.0,44,0.00,,,0.00,0,weatherlink.com 1.10,2013-08-01 10:39:00,
2013-08-01 04:54:00,66.3,44.0,30.10,NE,44,10.0,12.0,44,0.00,,,0.00,0,weatherlink.com 1.10,2013-08-01 10:54:00,
2013-08-01 05:09:00,66.7,43.0,30.09,North,360,8.0,11.0,43,0.00,,,0.00,0,weatherlink.com 1.10,2013-08-01 11:09:00,
2013-08-01 05:24:00,65.2,44.0,30.08,North,5,9.0,12.0,47,0.00,,,0.00,0,weatherlink.com 1.10,2013-08-01 11:24:00,
2013-08-01 05:39:00,64.9,43.0,30.08,North,5,9.0,13.0,46,0.00,,,0.00,0,weatherlink.com 1.10,2013-08-01 11:39:00,
2013-08-01 05:54:00,65.2,44.0,30.08,North,5,7.0,13.0,46,0.00,,,0.00,0,weatherlink.com 1.10,2013-08-01 11:54:00,
2013-08-01 06:24:00,68.1,43.0,30.08,North,355,10.0,18.0,40,0.00,,,0.00,11,weatherlink.com 1.10,2013-08-01 12:24:00,
2013-08-01 06:39:00,67.0,43.0,30.08,North,5,7.0,12.0,42,0.00,,,0.00,11,weatherlink.com 1.10,2013-08-01 12:39:00,
2013-08-01 06:54:00,66.5,43.0,30.08,North,355,8.0,13.0,43,0.00,,,0.00,11,weatherlink.com 1.10,2013-08-01 12:54:00,
2013-08-01 07:09:00,63.1,43.0,30.09,NNE,17,5.0,9.0,49,0.00,,,0.00,11,weatherlink.com 1.10,2013-08-01 13:09:00,
2013-08-01 07:24:00,60.1,45.0,30.11,South,181,1.0,12.0,57,0.00,,,0.00,11,weatherlink.com 1.10,2013-08-01 13:24:00,
2013-08-01 07:54:00,60.7,45.0,30.12,South,186,0.0,9.0,56,0.00,,,0.00,21,weatherlink.com 1.10,2013-08-01 13:54:00,
2013-08-01 08:10:00,61.1,44.0,30.12,ESE,115,0.0,7.0,54,0.00,,,0.00,40,weatherlink.com 1.10,2013-08-01 14:10:00,
2013-08-01 08:55:00,60.8,47.0,30.11,NNE,24,17.0,17.0,60,0.00,,,0.00,58,weatherlink.com 1.10,2013-08-01 14:55:00,
2013-08-01 09:25:00,60.5,48.0,30.12,NNE,19,23.0,24.0,63,0.00,,,0.00,49,weatherlink.com 1.10,2013-08-01 15:25:00,
2013-08-01 09:40:00,62.8,48.0,30.13,NE,35,16.0,21.0,58,0.00,,,0.00,97,weatherlink.com 1.10,2013-08-01 15:40:00,
2013-08-01 09:55:00,64.5,48.0,30.14,NNE,19,9.0,16.0,55,0.00,,,0.00,21,weatherlink.com 1.10,2013-08-01 15:55:00,
2013-08-01 10:25:00,63.5,49.0,30.13,North,355,9.0,11.0,60,0.00,,,0.00,58,weatherlink.com 1.10,2013-08-01 16:25:00,
2013-08-01 10:40:00,61.3,52.0,30.14,NNE,15,5.0,11.0,71,0.00,,,0.00,148,weatherlink.com 1.10,2013-08-01 16:40:00,
2013-08-01 10:55:00,61.6,52.0,30.13,NW,325,6.0,8.0,71,0.00,,,0.00,149,weatherlink.com 1.10,2013-08-01 16:55:00,
2013-08-01 11:10:00,61.1,52.0,30.12,NNW,344,13.0,15.0,72,0.00,,,0.00,123,weatherlink.com 1.10,2013-08-01 17:10:00,
2013-08-01 11:40:00,62.1,53.0,30.11,North,355,13.0,16.0,71,0.00,,,0.00,144,weatherlink.com 1.10,2013-08-01 17:40:00,
2013-08-01 12:10:00,62.8,52.0,30.12,North,11,9.0,17.0,68,0.00,,,0.00,26,weatherlink.com 1.10,2013-08-01 18:10:00,
2013-08-01 12:25:00,62.2,53.0,30.12,North,5,14.0,19.0,71,0.00,,,0.00,25,weatherlink.com 1.10,2013-08-01 18:25:00,
2013-08-01 12:40:00,60.0,54.0,30.14,NNE,31,14.0,14.0,80,0.00,,,0.00,25,weatherlink.com 1.10,2013-08-01 18:40:00,
2013-08-01 12:55:00,59.4,54.0,30.16,NNE,26,9.0,15.0,82,0.00,,,0.00,39,weatherlink.com 1.10,2013-08-01 18:55:00,
2013-08-01 13:10:00,59.5,54.0,30.16,NNE,24,10.0,13.0,82,0.00,,,0.00,62,weatherlink.com 1.10,2013-08-01 19:10:00,
2013-08-01 13:25:00,60.5,55.0,30.13,NNE,14,13.0,16.0,82,0.00,,,0.00,287,weatherlink.com 1.10,2013-08-01 19:25:00,
2013-08-01 13:40:00,60.3,55.0,30.14,North,360,15.0,21.0,83,0.00,,,0.00,246,weatherlink.com 1.10,2013-08-01 19:40:00,
2013-08-01 14:25:00,60.4,56.0,30.14,North,360,10.0,15.0,86,0.00,,,0.00,58,weatherlink.com 1.10,2013-08-01 20:25:00,
2013-08-01 14:40:00,59.9,57.0,30.15,North,5,9.0,11.0,90,0.00,,,0.00,58,weatherlink.com 1.10,2013-08-01 20:40:00,
2013-08-01 14:55:00,60.1,57.0,30.15,NNE,29,8.0,10.0,89,0.00,,,0.00,54,weatherlink.com 1.10,2013-08-01 20:55:00,
2013-08-01 15:10:00,60.2,57.0,30.16,North,5,5.0,8.0,90,0.00,,,0.00,44,weatherlink.com 1.10,2013-08-01 21:10:00,
2013-08-01 15:25:00,59.9,56.0,30.18,NNE,18,7.0,7.0,88,0.00,,,0.00,53,weatherlink.com 1.10,2013-08-01 21:25:00,
2013-08-01 15:40:00,59.8,56.0,30.19,NNE,33,5.0,9.0,88,0.00,,,0.00,72,weatherlink.com 1.10,2013-08-01 21:40:00,
2013-08-01 16:11:00,60.0,56.0,30.16,NE,34,3.0,6.0,87,0.00,,,0.00,271,weatherlink.com 1.10,2013-08-01 22:11:00,
2013-08-01 16:25:00,60.8,58.0,30.15,WSW,257,2.0,6.0,91,0.00,,,0.00,218,weatherlink.com 1.10,2013-08-01 22:25:00,
2013-08-01 16:41:00,60.7,58.0,30.14,SSW,212,7.0,8.0,91,0.00,,,0.00,178,weatherlink.com 1.10,2013-08-01 22:41:00,
2013-08-01 16:56:00,60.9,59.0,30.13,WSW,237,6.0,10.0,92,0.00,,,0.00,214,weatherlink.com 1.10,2013-08-01 22:56:00,
2013-08-01 17:26:00,61.5,58.0,30.09,SW,229,5.0,8.0,88,0.00,,,0.00,193,weatherlink.com 1.10,2013-08-01 23:26:00,
2013-08-01 17:41:00,61.3,57.0,30.10,SSW,213,8.0,11.0,85,0.00,,,0.00,160,weatherlink.com 1.10,2013-08-01 23:41:00,
2013-08-01 17:56:00,61.5,56.0,30.07,SSE,161,7.0,10.0,83,0.00,,,0.00,93,weatherlink.com 1.10,2013-08-01 23:56:00,
2013-08-01 18:11:00,61.8,56.0,30.07,SSE,155,8.0,8.0,80,0.00,,,0.00,63,weatherlink.com 1.10,2013-08-02 00:11:00,
2013-08-01 18:26:00,62.2,57.0,30.08,South,187,6.0,10.0,82,0.00,,,0.00,155,weatherlink.com 1.10,2013-08-02 00:26:00,
2013-08-01 18:41:00,63.1,55.0,30.08,SSE,155,9.0,10.0,76,0.00,,,0.00,204,weatherlink.com 1.10,2013-08-02 00:41:00,
2013-08-01 18:56:00,64.7,54.0,30.07,SSE,167,2.0,10.0,69,0.00,,,0.00,360,weatherlink.com 1.10,2013-08-02 00:56:00,
2013-08-01 19:11:00,65.2,53.0,30.07,SSE,150,0.0,6.0,65,0.00,,,0.00,281,weatherlink.com 1.10,2013-08-02 01:11:00,
2013-08-01 19:26:00,66.4,54.0,30.07,SE,146,1.0,2.0,64,0.00,,,0.00,255,weatherlink.com 1.10,2013-08-02 01:26:00,
2013-08-01 19:41:00,66.2,54.0,30.07,SSE,164,6.0,10.0,65,0.00,,,0.00,257,weatherlink.com 1.10,2013-08-02 01:41:00,
2013-08-01 19:56:00,65.4,53.0,30.06,SE,142,9.0,13.0,64,0.00,,,0.00,83,weatherlink.com 1.10,2013-08-02 01:56:00,
2013-08-01 20:11:00,64.5,54.0,30.06,SE,128,10.0,13.0,68,0.00,,,0.00,25,weatherlink.com 1.10,2013-08-02 02:11:00,
2013-08-01 20:26:00,64.1,53.0,30.07,SE,145,6.0,11.0,68,0.00,,,0.00,11,weatherlink.com 1.10,2013-08-02 02:26:00,
2013-08-01 20:41:00,63.9,53.0,30.06,SE,142,5.0,9.0,68,0.00,,,0.00,9,weatherlink.com 1.10,2013-08-02 02:41:00,
2013-08-01 20:56:00,63.2,54.0,30.07,SSW,192,3.0,5.0,71,0.01,,,0.01,0,weatherlink.com 1.10,2013-08-02 02:56:00,
2013-08-01 21:11:00,63.2,52.0,30.07,South,189,8.0,16.0,67,0.01,,,0.01,0,weatherlink.com 1.10,2013-08-02 03:11:00,
2013-08-01 21:26:00,62.9,52.0,30.07,SSE,154,8.0,11.0,68,0.01,,,0.01,0,weatherlink.com 1.10,2013-08-02 03:26:00,
2013-08-01 21:41:00,63.2,52.0,30.09,SSW,193,7.0,13.0,67,0.01,,,0.01,0,weatherlink.com 1.10,2013-08-02 03:41:00,
2013-08-01 21:56:00,61.8,52.0,30.12,SSW,205,9.0,11.0,70,0.00,,,0.01,0,weatherlink.com 1.10,2013-08-02 03:56:00,
2013-08-01 22:11:00,61.8,52.0,30.13,SSE,155,8.0,9.0,71,0.00,,,0.01,0,weatherlink.com 1.10,2013-08-02 04:11:00,
2013-08-01 22:26:00,61.1,53.0,30.13,SE,132,5.0,10.0,74,0.00,,,0.01,0,weatherlink.com 1.10,2013-08-02 04:26:00,
2013-08-01 22:41:00,60.8,54.0,30.16,South,186,13.0,13.0,77,0.00,,,0.01,0,weatherlink.com 1.10,2013-08-02 04:41:00,
2013-08-01 22:56:00,58.9,53.0,30.14,SE,133,10.0,20.0,81,0.00,,,0.01,0,weatherlink.com 1.10,2013-08-02 04:56:00,
2013-08-01 23:11:00,58.6,53.0,30.16,North,9,10.0,15.0,82,0.00,,,0.01,0,weatherlink.com 1.10,2013-08-02 05:11:00,
2013-08-01 23:26:00,58.4,52.0,30.16,ENE,58,11.0,14.0,78,0.00,,,0.01,0,weatherlink.com 1.10,2013-08-02 05:26:00,
2013-08-01 23:41:00,58.7,50.0,30.16,SE,130,12.0,15.0,72,0.00,,,0.01,0,weatherlink.com 1.10,2013-08-02 05:41:00,
2013-08-01 23:56:00,57.2,52.0,30.17,SSW,193,12.0,17.0,83,0.00,,,0.01,0,weatherlink.com 1.10,2013-08-02 05:56:00,